Skip to content
Skip to navigation menu

 

Cardiff Business School Exam Timetable 2014-15

Additional Exam Timetable

Exam Paper No Exam Paper Title Start time Date Duration Venue
BST220 HUMAN RESOURCE MANAGEMENT IN CONTEXT 09:00:00 05/01/2015 3 SAS R
BST221 THE MANAGEMENT OF HUMAN RESOURCES 09:00:00 08/01/2015 3 LT
BST226 EMPLOYMENT LAW 09:00:00 07/01/2015 3 SC
BST446 INTERNATIONAL MANAGEMENT 09:00:00 09/01/2015 3 LT
BST447 GOVERNANCE, REGULATION AND STANDARDS IN GLOBAL BUSINESS 09:00:00 06/01/2015 3 LT
BST510 STUDY SKILLS (MBA) INCORPORATING BUSINESS STATS 13:00:00 07/01/2015 1.5 LT
BST511 FINANCIAL ANALYSIS AND CONTROL 09:00:00 06/01/2015 3 LT
BST513 MARKETING 09:00:00 05/01/2015 2 LT
BST514 OPERATIONS ANALYSIS 09:00:00 08/01/2015 3 LT
BST516 THE BUSINESS ENVIRONMENT 09:00:00 09/01/2015 3 LT

 

Autumn Exam Timetable 

Exam Paper Number Exam Paper Title Start time Date Duration (Hrs) Venue
BS0511 QUANTITATIVE METHODS FOR BUSINESS 13:00:00 21/01/2015 1.5 SU
BS1501 APPLIED STATS & MATHS IN ECON & BUSINESS 13:00:00 16/01/2015 1 LT
BS1503 INTRODUCTION TO ACCOUNTING 13:00:00 22/01/2015 1 LT
BS1508 STATISTICAL ANALYSIS AND RESEARCH METHODS 09:00:00 19/01/2015 2 LT
BS1530 PRINCIPLES OF BUSINESS MANAGEMENT 09:00:00 14/01/2015 2 LT
BS1531 STATISTICAL ANALYSIS 09:00:00 19/01/2015 2 LT
BS1551 MICROECONOMICS 09:00:00 20/01/2015 3 LT
BS2502 BUSINESS FINANCE 13:00:00 21/01/2015 1.5 SU
BS2506 INFER STATS STAT MODELLING & SURV METHS 09:00:00 20/01/2015 2 SAS(S)
BS2509 TAXATION 13:00:00 15/01/2015 1.5 NCH
BS2516 CORPORATE REPORTING 13:00:00 13/01/2015 1.5 LT
BS2517 PERFORMANCE AND FINANCIAL MANAGEMENT 09:00:00 14/01/2015 2 SU
BS2549 MACROECONOMIC THEORY 13:00:00 12/01/2015 1.5 CH
BS2550 MICROECONOMIC THEORY 13:00:00 19/01/2015 1.5 SU
BS2551 MONEY BANKING & FINANCE 13:00:00 23/01/2015 1 SU
BS2570 INTRODUCTORY ECONOMETRICS 13:00:00 16/01/2015 1 LT
BS3502 BUSINESS FINANCE 13:00:00 14/01/2015 1.5 CH
BS3503 DEVELOPMENT OF ACCOUNTING 09:00:00 22/01/2015 2 SAS(S)
BS3506 INTERNATIONAL ACCOUNTING 09:00:00 20/01/2015 2 NCH
BS3515 FINANCIAL DERIVATIVES 09:00:00 12/01/2015 2 SU
BS3519 EXPLORATORY DATA ANALYSIS 09:00:00 21/01/2015 2 TP
BS3520 ANALYSIS OF FINANCIAL REPORTING INFORMATION 09:00:00 16/01/2015 2 SU
BS3547 BUSINESS APPLICATIONS 09:00:00 16/01/2015 2 SC
BS3555 INTERNATIONAL FINANCE 13:00:00 13/01/2015 2 CH
BS3565 MACROECONOMIC ANALYSIS 09:00:00 23/01/2015 2 CH
BS3566 MICROECONOMIC ANALYSIS 09:00:00 16/01/2015 2 NCM
BS3568 INTERNATIONAL TRADE 09:00:00 21/01/2015 2 TP
BS3570 APPLIED MACROECONOMICS AND FINANCE 13:00:00 23/01/2015 1 NCH
BS3572 INDUSTRIAL ECONOMICS 09:00:00 19/01/2015 2 NCM
BS3593 CORPORATE REPORTING AND FINANCE - AUTUMN EXAM 13:00:00 15/01/2015 1.5 CH
BS3727 ENTREPRENEURSHIP AND SMALL BUSINESS DEVELOPMENT 09:00:00 12/01/2015 2 SU
BS8502 BUSINESS FINANCE 13:00:00 21/01/2015 1.5 SU
BS8550 MICROECONOMIC THEORY 13:00:00 19/01/2015 1.5 SU
BS8551 MONEY BANKING AND FINANCE 13:00:00 23/01/2015 1 SU
BS8570 INTRODUCTORY ECONOMETRICS 13:00:00 16/01/2015 1 LT
BS9502 BUSINESS FINANCE 13:00:00 14/01/2015 1.5 CH
BS9565 MACROECONOMIC ANALYSIS 09:00:00 23/01/2015 2 CH
BS9568 INTERNATIONAL TRADE 09:00:00 21/01/2015 2 TP
BST141 STRATEGIC MARKETING MANAGEMENT 13:00:00 13/01/2015 2 NCH
BST143 BEHAVIOURAL ASPECTS OF MARKETING 09:00:00 15/01/2015 2 TP
BST146 RESEARCH IN STRATEGIC MARKETING 13:00:00 20/01/2015 2 LT
BST152 ADVANCED FINANCIAL REPORTING 13:00:00 13/01/2015 2 CH
BST155 MANAGEMENT ACCOUNTING AND THE CONTROL OF ORGANIZATIONAL PERFORMANCE 09:00:00 20/01/2015 2 SU
BST161 PRINCIPLES OF FINANCE 09:00:00 15/01/2015 2 LT
BST162 MACROECONOMICS 1 09:00:00 19/01/2015 2 LT
BST162 MACROECONOMICS 2 09:00:00 21/01/2015 2 LT
BST163 MICROECONOMICS: ECONOMICS OF UNCERTAINTY 09:00:00 23/01/2015 2 LT
BST164 QUANTITATIVE METHODS 09:00:00 12/01/2015 2 CH
BST168 ADVANCED MACROECONOMICS 09:00:00 15/01/2015 3 SAS(S)
BST169 ECONOMETRICS 09:00:00 13/01/2015 3 SAS(S)
BST171 ADVANCED MICROECONOMIC THEORY 09:00:00 20/01/2015 3 LT
BST175 ADVANCED MICROECONOMICS 09:00:00 15/01/2015 2 MU
BST176 ADVANCED MACROECONOMICS 09:00:00 13/01/2015 3 NCM
BST177 ADVANCED LABOUR ECONOMICS 09:00:00 20/01/2015 3 LT
BST178 TOPICS IN ECONOMETRICS - EXAM 09:00:00 23/01/2015 2 TP
BST182 MATHEMATICAL ECONOMICS 09:00:00 22/01/2015 3 LT
BST186 ECONOMICS AND THE BUSINESS ENVIRONMENT - EXAMINATION 13:00:00 16/01/2015 2 CH
BST189 ENTREPRENEURIAL FINANCE - EXAMINATION 13:00:00 13/01/2015 2 NCM
BST286 TOPICS IN INTERNATIONAL MACROECONOMICS 09:00:00 23/01/2015 2 LT
BST998 MARKET STRUCTURE AND TRADING SYSTEMS 09:00:00 19/01/2015 2 CH
BST999 RESEARCH METHODS IN FINANCE 13:00:00 21/01/2015 2 NCH

 

  • CH = City Hall, Cathays Park, CF10 3ND; LT = Sports Hall, Talybont, CF14 3UX; MU = Concert Hall, Music Building, CF10 3UP; NCH = Main Hall, Ground Floor, All Nations Centre, Sachville Avenue, off Whitchurch Road, CF14 3NY; NCM = Muller Hall, First Floor, All Nations Centre, Sachville Avenue, off Whitchurch Road, CF14 3NY; NR = Room 0.05 Ground Floor McKenzie House, 30 - 36 Newport Road, CF24 0DE; S1.29 = Room 1.29, South Building, The Parade, CF24 3AA; SAS(P) = President's Room, Sports and Social Club, Heath Park Campus, CF14 4XW; SAS(R) = Recreation Hall, Sports and Social Club, Heath Park Campus, CF14 4XW; SAS(S) = Sports Hall, Sports and Social Club, Heath Park Campus, CF14 4XW; SC = School - please consult your school's notice board; SU = Great Hall, Students' Union, CF10 3QN; TDS = Ty Dewi Sant, Heath Park Campus, CF14 4XN; TP = Temple of Peace, King Edward VII Avenue, Cathays Park, CF10 3AP; TVS = Seminar Rooms 1 & 2, Ground Floor, Trevithick Building, The Parade, CF24 3AA